Tracking 29591 objects as of 19-Sep-2024
HD Live streaming from Space Station
objects crossing your sky now

SL-12 R/B

Track SL-12 R/B now!


NORAD ID: 20413
Int'l Code: 1983-020D
Perigee: 43,280.1 km
Apogee: 158,471.9 km
Inclination: 78.1 °
Period: 5,825.6 minutes
Semi major axis: 107246 km
RCS: 1.9953 m2 (large)
Launch date: March 23, 1983
Source: Commonwealth of Independent States (former USSR) (CIS)
Launch site: TYURATAM MISSILE AND SPACE COMPLEX (TTMTR)

Note: This is a ROCKET BODY
Your satellite tracking list
Your tracking list is empty




NASA's NSSDC Master Catalog

Two Line Element Set (TLE):
1 20413U 83020D   24264.05044982  .00000037  00000-0  00000+0 0  9992
2 20413  78.0687  65.1365 5370394  30.6650 359.6918  0.24718676 24418
Source of the keplerian elements: AFSPC